Weather History for Peru, IN

Change the Weather History Date:

Saturday, April 6, 2013

  Actual Average Record
Temperature  
Mean Temperature 49 °F -  
Max Temperature 67 °F 57 °F 78 °F (2005)
Min Temperature 33 °F 37 °F 23 °F (2007)
Degree Days  
Heating Degree Days 16    
Moisture  
Dew Point 32 °F    
Average Humidity 48    
Maximum Humidity 73    
Minimum Humidity 31    
Precipitation  
Precipitation 0.00 in - - ()
Sea Level Pressure  
Sea Level Pressure 29.98 in    
Wind  
Wind Speed 12 mph (SSE)    
Max Wind Speed 24 mph    
Max Gust Speed 32 mph    
Visibility 10 miles    
Events      
Averages and records for this station are not official NWS values.
T = Trace of Precipitation, MM = Missing Value Source: NWS Daily Summary

Daily Weather History Graph

Daily Weather History Graph

Search for Another Location

Airport:

Trip Planner

Search our weather history database for the weather conditions in past years. The results will help you decide how hot, cold, wet, or windy it might be!

Date:

Astronomy

Apr. 06, 2013 Rise Set
Actual Time 7:19 AM EDT 8:14 PM EDT
Civil Twilight 6:51 AM EDT 8:42 PM EDT
Nautical Twilight 6:18 AM EDT 9:15 PM EDT
Astronomical Twilight 5:44 AM EDT 9:50 PM EDT
Moon 5:04 AM EDT (4/6) 4:41 PM EDT (4/6)
Length of Visible Light 13h 50m
Length of Day
12h 55m
Waning Crescent, 15% of the Moon is Illuminated
Apr 6
Waning Crescent
Apr 10
New
Apr 18
First Quarter
Apr 25
Full
May 2
Last Quarter

Hourly Weather History & Observations

Time (EDT) Temp. Windchill Dew Point Humidity Pressure Visibility Wind Dir Wind Speed Gust Speed Precip Events Conditions
12:55 AM 33.3 °F 27.9 °F 25.5 °F 73% 30.15 in 10.0 mi NE 5.8 mph - N/A   Clear
1:55 AM 34.3 °F 30.2 °F 25.0 °F 69% 30.15 in 10.0 mi ENE 4.6 mph - N/A   Mostly Cloudy
2:55 AM 36.7 °F 34.1 °F 25.9 °F 65% 30.13 in 10.0 mi East 3.5 mph - N/A   Mostly Cloudy
3:55 AM 36.7 °F 31.2 °F 26.6 °F 67% 30.13 in 10.0 mi ENE 6.9 mph - N/A   Overcast
4:55 AM 38.3 °F 33.2 °F 24.8 °F 58% 30.13 in 10.0 mi East 6.9 mph - N/A   Mostly Cloudy
5:55 AM 38.1 °F 31.2 °F 27.5 °F 66% 30.13 in 10.0 mi ESE 10.4 mph - N/A   Scattered Clouds
6:55 AM 39.7 °F 31.9 °F 27.1 °F 61% 30.13 in 10.0 mi ESE 13.8 mph - N/A   Mostly Cloudy
7:55 AM 40.3 °F 31.9 °F 27.5 °F 60% 30.13 in 10.0 mi SE 16.1 mph - N/A   Mostly Cloudy
8:55 AM 42.1 °F 35.7 °F 27.1 °F 55% 30.13 in 10.0 mi SE 11.5 mph - N/A   Mostly Cloudy
9:55 AM 46.8 °F - 27.1 °F 46% 30.14 in 10.0 mi SE 17.3 mph - N/A   Scattered Clouds
10:55 AM 48.6 °F - 26.8 °F 43% 30.12 in 10.0 mi SSE 20.7 mph - N/A   Scattered Clouds
11:55 AM 50.7 °F - 27.5 °F 41% 30.09 in 10.0 mi SSE 18.4 mph - N/A   Partly Cloudy
12:55 PM 55.4 °F - 29.1 °F 37% 30.06 in 10.0 mi SSE 24.2 mph 32.2 mph N/A   Scattered Clouds
1:55 PM 60.4 °F - 30.2 °F 32% 30.01 in 10.0 mi SSE 23.0 mph 31.1 mph N/A   Partly Cloudy
2:55 PM 64.0 °F - 32.5 °F 31% 29.96 in 10.0 mi SSE 21.9 mph 29.9 mph N/A   Partly Cloudy
3:55 PM 65.7 °F - 33.8 °F 31% 29.91 in 10.0 mi South 24.2 mph 31.1 mph N/A   Partly Cloudy
4:55 PM 65.3 °F - 34.9 °F 32% 29.86 in 10.0 mi SSE 21.9 mph 31.1 mph N/A   Clear
5:55 PM 64.0 °F - 35.4 °F 35% 29.83 in 10.0 mi South 20.7 mph - N/A   Scattered Clouds
6:55 PM 63.1 °F - 36.5 °F 37% 29.82 in 10.0 mi South 13.8 mph - N/A   Clear
7:55 PM 62.4 °F - 37.6 °F 40% 29.81 in 10.0 mi South 16.1 mph - N/A   Overcast
8:55 PM 61.0 °F - 38.5 °F 43% 29.79 in 10.0 mi SSE 12.7 mph - N/A   Mostly Cloudy
9:55 PM 59.2 °F - 39.7 °F 49% 29.78 in 10.0 mi South 8.1 mph - N/A   Mostly Cloudy
10:55 PM 60.1 °F - 38.7 °F 45% 29.78 in 10.0 mi South 12.7 mph - N/A   Mostly Cloudy
11:01 PM 60.8 °F - 39.2 °F 45% 29.78 in 10.0 mi South 13.8 mph - N/A   Light Drizzle
11:10 PM 60.8 °F - 39.2 °F 45% 29.77 in 10.0 mi SSW 12.7 mph - N/A   Mostly Cloudy
11:55 PM 63.0 °F - 38.1 °F 40% 29.76 in 10.0 mi SSW 23.0 mph 28.8 mph 0.00 in   Overcast